CZ-2D R/B, 43486

Orbit data source: Space-Track

CZ-2D R/B, 43486 is space debris in SSO originally from a launch on Sat, 02 Jun 2018 UTC launched from the Jiuquan Satellite Launch Center, China (JSC). Debris objects in space refer to the collection of defunct objects orbiting the Earth. Examples of debris include non-operational satellites, rocket bodies, and fragments generated from explosions, collisions, or faulty payload assembly.

Loading next visibility...
Identifier
43486, 2018-048C
Orbit
SSO
Country
Flag of CNCN / PRC
Related business
Manufacturer
CALT
Mission
Spacecraft
Bus & Motor
Unknown
Mass
1 kg wet, 1 kg dry
Launch date (UTC)
2018-06-02 (8 years ago)
Launch vehicle
Unknown
Launch site
Jiuquan Satellite Launch Center, China (JSC)
Object type
Payload
Rocket body
Debris
Shape & HBR
Cone, 0.1 m
Radar Cross Section
0.025 m², Small (<0.1 m²)

Expand to show TLE details & history
Last TLE update: 5 hours ago

TLE from 5 hours ago
0 CZ-2D R/B
1 43486U 18048C   25351.33002190  .00003056  00000-0  29283-3 0  9991
2 43486  97.5971  22.0449 0012719  53.1495 307.0889 14.93810099407991
Epoch: 2025-12-17T07:55Z
TLE epoch observation values (Epoch: 2025-12-17T07:55:13.892Z)
Latitude
-0.00007°
Longitude
177.03559°
Altitude
583.782 km
Speed
7.571 km/s
True Right ascension
01h 28m 10s
True Declination
0° 00' 00"
Sunlit
Object was in full shadow at epoch
Visualization orbit readout
Latitude
Unknown
Longitude
Unknown
Altitude
Unknown
Speed
Unknown
Apparent Right ascension
Unknown
Apparent Declination
Unknown
Sunlit
N/A
Visualization observer readout
Local Sidereal Time
11:13:18
Azimuth
Unknown
Elevation
Unknown
Doppler factor
Unknown
Orbital elements
Apogee altitude
591.932 km
Perigee altitude
574.224 km
Semi-major axis
6,961.215 km
Eccentricity
0.00127
Inclination
97.5971°
RAAN
22.0449°
Arg. of periapsis
53.1495°
True anomaly
306.97252°
Mean anomaly
307.0889°
Eccentric anomaly
307.03072°
Mean motion
3.73694 °/min
Orbital period
96.34 mins
BSTAR
0.00029283
Loading maneuver chart data...
Computing Atmospheric mass density...
Loading historical data...
Loading historical data...
Loading historical data...
Loading historical data...
Loading historical data...
Loading historical data...
Loading historical data...
Other satellites on launch #48 in the year 2018 (2018-06-02 UTC)

Documentation

Showing up to 5 results
|